Temp_Advection
nan nan nan nan nan nan nan nan nan nan nan nan nan nan nan nan nan nan nan nan nan nan nan nan nan nan nan nan nan nan nan nan nan nan nan nan nan nan nan nan nan nan
nan 0 0 0 -0 -0 -0 -0 -0 -0 -0 1 1 0 0 0 0 -0 -0 -0 -0 -1 -2 -1 -0 0 0 0 -0 -1 -0 0 0 0 -0 -0 0 0 0 0 0 nan
nan -0 0 0 -0 -0 -0 0 0 -0 0 1 1 0 0 0 0 0 -0 -0 -1 -1 -1 -0 0 0 0 0 -0 -0 -0 0 -0 -0 -1 -0 -0 0 0 0 0 nan
nan -0 -0 0 -0 -0 -0 0 0 -0 0 0 0 0 0 0 0 0 -0 -0 -1 -1 -0 0 0 0 0 0 0 0 0 0 0 -0 -1 -0 -0 0 0 0 -0 nan
nan -0 0 0 -0 -0 -0 -0 -0 -0 0 0 0 0 0 0 0 -0 -0 -0 -1 -0 -0 0 0 0 0 0 0 0 -0 0 0 -0 -0 -0 0 0 0 -0 -0 nan
nan -0 0 0 -0 -0 -0 -0 -0 -0 0 -0 0 0 -0 -0 -0 -0 -0 -0 -0 -0 -0 -0 -0 0 0 0 0 -0 -0 -0 0 -0 -0 0 0 0 0 0 -0 nan
nan -0 0 0 0 -0 -0 -0 -0 0 0 0 0 1 -0 -0 -0 -0 -0 0 -0 -0 -0 -1 -0 0 0 0 -0 -0 -0 0 -0 -0 0 0 0 0 0 0 0 nan
nan -0 -0 0 -0 -0 -0 0 0 0 1 1 1 1 0 0 -0 -1 -0 0 -0 -0 -0 -1 -0 0 0 0 0 0 0 0 -0 0 0 0 0 -0 -0 0 0 nan
nan -0 -0 -0 -0 -1 -0 0 0 1 1 1 1 1 0 -0 -0 -0 0 0 0 0 -0 -0 -0 0 0 0 0 0 0 -0 -0 0 0 -0 -0 -0 0 0 0 nan
nan -0 -0 -1 -1 -1 -1 0 1 1 0 0 1 1 0 -0 -0 0 1 0 1 0 -0 -1 -0 0 0 0 0 0 -0 -0 -0 0 0 -0 0 0 0 0 -0 nan
nan -0 -1 -1 -1 -1 0 1 2 1 -0 0 1 1 0 -0 -0 1 1 0 0 0 -0 -1 -1 -0 0 0 0 -0 -0 -0 0 0 0 0 1 1 0 0 0 nan
nan -1 -2 -1 -0 -0 1 2 2 0 -0 0 0 1 1 -1 -1 0 0 0 0 -0 -0 -0 -0 0 0 1 0 -0 0 0 0 1 0 1 1 1 0 0 0 nan
nan -1 -2 -1 -1 0 1 2 1 0 0 0 0 1 1 -1 -1 0 0 1 1 0 -0 0 0 0 1 1 0 0 0 0 0 1 1 1 1 1 0 0 0 nan
nan -1 -1 -1 -0 1 1 1 1 0 0 1 1 1 1 -0 -0 1 1 1 1 1 1 1 1 0 0 1 1 0 0 0 1 1 1 1 1 1 1 1 0 nan
nan -0 0 0 1 1 1 1 1 0 0 1 1 1 1 1 1 1 1 1 2 2 2 2 1 -0 -0 1 1 0 0 0 1 1 1 1 1 1 1 0 0 nan
nan 0 1 1 1 1 1 1 2 1 1 1 1 1 1 1 1 1 1 1 2 2 2 1 0 -1 -0 1 0 -0 -0 0 1 1 1 1 1 1 1 1 1 nan
nan 1 1 2 1 1 1 2 2 1 1 1 1 1 1 1 0 0 1 1 2 2 2 1 -1 -2 -0 1 -0 -0 0 1 1 2 1 1 1 1 1 1 1 nan
nan 1 2 1 1 1 2 2 2 1 1 1 1 1 1 1 0 0 1 1 2 2 1 -0 -1 -1 0 -0 -1 -0 0 1 2 1 1 1 1 1 1 1 0 nan
nan 2 2 1 1 1 2 2 1 1 1 1 1 1 1 1 0 0 1 1 1 1 1 0 -1 -1 -0 -1 -1 0 1 1 2 1 1 1 1 1 1 1 -0 nan
nan 2 1 1 1 1 1 1 1 1 1 1 1 1 1 1 0 1 1 1 1 1 1 0 -1 -1 -0 0 -0 -0 0 1 2 1 1 1 0 1 1 1 0 nan
nan 1 1 1 1 1 2 2 1 1 1 1 1 1 1 1 1 1 1 1 1 1 1 0 -0 -0 0 0 -1 -1 0 2 2 1 1 1 1 1 1 0 0 nan
nan 1 1 1 1 1 1 1 1 1 1 1 1 1 1 1 1 1 1 1 1 1 0 1 1 0 0 0 -1 -1 1 2 1 1 1 1 1 1 0 0 0 nan
nan 1 1 1 1 1 1 1 1 1 1 1 1 1 1 1 0 1 1 1 1 1 1 1 1 0 1 1 -0 0 2 2 1 1 1 1 0 -0 -0 0 1 nan
nan 1 1 1 1 1 1 1 1 1 1 1 0 0 0 0 1 1 1 1 1 1 1 1 1 0 1 0 -0 1 2 1 0 1 1 -0 -0 0 0 0 0 nan
nan 1 1 1 1 1 1 1 0 0 0 0 0 1 1 1 1 1 1 2 1 1 1 1 0 0 1 0 0 1 0 0 1 1 -0 -0 0 0 0 0 -0 nan
nan nan nan nan nan nan nan nan nan nan nan nan nan nan nan nan nan nan nan nan nan nan nan nan nan nan nan nan nan nan nan nan nan nan nan nan nan nan nan nan nan nan
Wind_Speed
30 29 29 27 26 25 23 23 23 22 21 20 20 20 19 19 18 18 18 17 18 19 19 16 13 13 17 19 21 19 15 12 11 11 11 11 11 11 11 9 9 10
31 30 29 28 27 26 25 24 23 23 23 22 21 21 20 20 21 21 20 19 19 19 17 13 12 14 17 18 19 20 18 14 13 13 13 11 10 11 10 10 9 10
33 32 31 30 29 27 26 25 25 24 24 24 24 23 22 22 23 22 21 21 22 21 18 13 12 14 17 18 18 18 18 16 15 15 14 11 9 9 10 10 9 7
35 34 33 31 30 28 27 26 26 26 26 26 26 25 24 24 24 23 23 24 24 22 19 16 14 15 17 19 18 17 18 17 16 17 15 12 9 10 11 11 12 11
37 35 34 32 31 29 28 27 28 28 28 28 28 27 26 26 25 24 24 25 25 23 21 18 16 16 17 19 19 18 18 18 17 18 16 13 10 10 11 12 13 14
38 36 35 33 32 31 30 30 30 30 30 30 30 28 28 28 27 26 26 26 25 24 23 21 19 18 18 19 20 20 19 18 17 18 17 14 12 11 11 12 12 12
38 38 36 34 33 32 32 32 32 32 32 32 31 30 30 30 29 29 28 27 26 25 24 23 21 21 20 19 21 22 21 20 19 18 17 15 13 13 13 13 12 12
39 38 37 36 34 34 34 34 34 34 33 33 32 32 31 31 31 31 30 29 27 26 26 25 24 23 22 21 21 21 22 22 21 20 18 16 16 15 15 14 13 13
39 38 38 37 36 36 36 35 35 34 34 34 33 33 33 33 33 33 32 31 30 29 28 27 26 25 24 23 21 21 22 23 22 21 20 18 18 18 16 15 15 15
39 38 37 37 37 38 37 36 35 35 35 34 34 34 35 36 36 36 35 34 33 32 31 30 28 27 26 26 23 21 22 22 22 22 21 19 18 18 18 17 16 16
39 39 38 38 38 38 38 37 35 34 34 34 34 36 37 38 37 37 37 37 36 35 34 33 31 29 28 28 26 23 22 23 23 23 22 20 19 19 19 18 18 17
40 40 40 39 38 38 37 37 35 33 33 33 34 35 36 38 39 38 38 38 38 37 37 35 33 31 29 29 28 25 23 24 24 24 23 21 20 20 20 20 19 18
41 41 40 39 38 37 37 35 34 34 33 34 34 32 32 36 39 39 38 39 39 39 38 37 36 34 31 30 30 28 25 25 26 25 23 22 22 22 22 22 20 19
40 40 39 38 37 37 37 36 34 34 33 35 35 33 32 35 37 38 38 38 40 40 39 39 38 36 33 32 32 29 26 26 27 26 24 23 23 23 23 23 21 20
39 38 37 37 37 37 37 36 35 34 34 34 35 34 33 34 34 34 36 37 39 40 39 39 40 38 35 34 33 30 28 28 28 28 25 24 23 24 25 23 22 21
37 37 36 36 37 37 36 36 36 34 34 34 34 33 33 32 30 30 33 35 37 38 39 39 39 38 37 35 32 30 30 30 30 29 26 24 23 25 25 23 22 21
35 35 36 36 37 36 36 36 35 35 34 33 33 32 33 32 30 30 32 32 33 34 36 39 39 38 40 39 33 30 31 32 31 30 27 24 23 24 24 22 21 21
36 36 35 35 35 35 35 35 34 34 34 33 33 32 32 31 30 30 32 32 30 29 30 35 37 38 41 40 33 30 32 33 32 30 27 24 23 23 23 22 23 22
37 36 34 33 32 31 32 32 32 32 32 32 31 30 31 31 30 29 30 31 31 29 28 30 32 35 39 39 33 30 31 33 32 29 26 25 23 23 22 22 23 22
37 36 33 31 30 29 29 29 29 29 30 29 27 27 29 31 31 31 30 30 31 31 30 30 30 31 35 35 31 30 32 33 31 27 27 26 23 21 21 21 21 21
36 34 31 29 29 28 27 28 29 29 29 28 27 26 27 30 31 32 31 31 31 32 33 33 33 32 32 30 28 29 33 32 29 27 27 25 23 22 21 21 21 21
36 33 30 29 29 27 27 28 29 28 28 27 26 25 25 27 29 30 30 30 30 32 33 34 34 32 30 27 25 28 31 28 27 28 27 24 22 24 22 20 22 24
35 32 30 30 29 27 27 27 26 27 27 25 23 22 24 27 28 28 28 27 27 29 30 32 33 31 30 27 25 28 29 26 26 29 29 25 22 22 21 20 23 24
32 31 30 29 28 27 26 24 22 23 23 22 20 18 20 24 26 25 26 25 24 23 25 29 31 30 29 28 27 31 33 29 28 30 31 26 22 20 20 21 23 24
29 30 29 27 25 24 23 21 21 20 20 21 21 20 20 22 23 23 25 27 24 21 23 27 30 29 30 29 28 31 33 30 27 29 29 25 23 21 21 23 25 26
28 30 29 25 23 22 22 21 19 19 20 21 21 22 23 23 22 21 22 22 20 18 20 23 25 27 29 28 27 29 29 25 24 25 26 24 22 21 22 24 26 27
Wind_Direction
213 213 213 215 216 216 215 212 214 218 221 223 224 224 221 215 208 210 220 220 211 220 229 226 223 209 199 198 197 205 218 210 202 212 213 208 204 201 207 214 217 219
213 214 214 216 217 217 217 216 217 220 221 221 222 224 225 222 218 216 221 228 227 229 232 224 218 216 211 210 207 210 220 214 201 212 223 218 209 204 204 208 217 229
214 215 215 216 218 218 217 218 219 221 223 221 219 222 225 225 225 222 221 228 231 233 235 230 220 217 215 217 218 215 219 219 208 212 224 222 214 208 202 203 214 232
215 215 217 218 219 220 219 218 219 221 223 223 221 220 223 226 227 225 221 223 230 235 239 236 225 220 217 218 222 221 220 224 219 217 222 219 213 213 205 202 207 214
215 216 218 218 219 220 221 218 219 221 223 224 225 222 222 225 226 227 224 222 227 234 237 235 227 223 221 217 221 225 223 224 221 218 221 220 213 214 211 209 211 208
215 217 218 219 219 220 222 221 218 220 223 225 228 225 223 226 226 229 230 227 228 231 234 234 227 222 224 219 218 224 226 224 221 217 220 220 214 214 214 213 214 210
215 217 218 218 219 220 222 223 220 221 224 226 229 229 227 228 228 230 234 233 231 232 234 235 228 221 223 221 218 224 227 225 223 219 219 219 215 216 217 214 215 220
216 217 218 218 218 220 222 223 222 222 224 225 227 229 231 231 230 232 236 236 235 236 236 235 230 222 221 221 219 223 224 223 223 221 220 219 215 218 224 219 216 224
215 217 219 219 219 221 223 223 224 224 224 224 225 226 229 232 234 235 237 238 238 238 236 235 232 225 221 220 221 223 221 219 220 221 221 222 220 222 227 224 220 224
213 216 219 220 222 224 225 225 225 225 225 225 224 224 226 231 236 236 236 237 239 237 235 235 234 228 222 221 223 225 221 217 218 221 223 225 225 226 227 226 225 225
213 215 218 222 223 226 229 228 224 224 227 227 225 224 227 231 235 236 235 236 237 237 236 235 236 233 226 223 224 225 222 219 218 220 225 227 228 229 229 228 227 228
214 215 219 223 224 226 228 227 222 220 225 228 227 226 226 231 235 236 236 237 237 237 236 236 237 236 231 226 224 224 222 220 218 220 225 227 228 229 229 229 229 231
216 216 220 223 225 226 225 223 220 218 221 225 228 227 226 232 237 237 238 239 238 237 237 237 237 236 233 228 225 224 222 221 219 219 223 225 227 229 229 230 232 233
218 219 221 222 226 227 224 222 220 219 220 222 225 226 226 232 240 242 242 242 240 238 237 236 234 233 232 228 225 223 223 223 220 219 222 224 225 228 229 230 232 236
218 219 221 222 224 226 225 223 221 220 221 223 225 227 226 228 235 240 241 241 240 237 234 232 231 232 231 229 225 224 225 225 221 219 221 222 224 229 231 229 232 237
216 217 219 220 220 223 225 224 222 220 221 223 225 228 227 224 226 231 235 238 239 235 230 227 228 231 233 230 228 229 230 226 220 219 220 221 223 229 231 230 233 238
215 216 217 217 217 220 223 223 221 219 220 222 223 227 229 226 224 228 232 235 238 235 228 226 231 237 237 233 232 234 233 227 221 219 219 219 223 230 232 230 232 235
214 215 215 215 216 217 220 221 220 219 220 221 221 225 230 229 226 228 230 232 233 231 228 229 235 241 240 237 237 237 231 226 223 221 220 219 223 229 230 230 234 238
212 212 212 213 214 216 217 218 219 219 220 222 221 223 227 228 227 227 229 230 228 228 229 229 233 240 241 240 240 235 227 224 223 222 223 222 223 227 232 237 240 241
208 208 209 210 211 213 213 213 216 218 219 220 219 221 226 229 229 228 229 230 228 229 229 228 235 245 245 243 241 233 226 223 222 223 226 227 228 233 242 249 246 241
204 205 207 207 208 210 210 211 214 217 219 219 218 220 226 230 229 228 229 231 231 229 229 232 241 247 247 247 245 234 227 222 221 224 228 230 236 244 252 254 244 240
201 202 202 204 205 206 206 209 213 217 219 219 218 219 225 229 230 229 231 233 231 229 230 235 240 242 246 251 245 231 223 219 221 226 228 230 240 251 260 255 240 239
198 199 199 201 202 202 203 208 213 217 219 219 218 217 220 226 229 231 235 236 230 226 230 236 238 239 245 249 237 221 215 217 224 228 228 232 244 255 261 252 239 241
195 196 197 198 199 199 200 204 208 212 215 217 220 218 220 224 225 227 231 229 224 226 231 234 236 236 239 240 227 214 214 223 231 229 226 233 250 259 256 245 240 246
189 191 193 195 195 193 193 196 198 200 205 213 218 218 222 228 227 226 229 228 229 235 235 233 236 235 235 236 230 222 224 231 232 225 224 236 253 258 250 243 244 250
182 186 188 188 187 184 186 192 195 196 203 212 216 216 221 229 230 230 233 235 237 237 230 229 237 239 237 239 238 234 233 231 224 220 226 239 250 250 245 244 248 251
Height
1517 1519 1521 1523 1525 1527 1529 1530 1532 1533 1534 1536 1536 1538 1539 1541 1543 1543 1543 1545 1547 1547 1547 1548 1549 1550 1550 1551 1551 1552 1552 1554 1555 1556 1556 1556 1556 1557 1558 1559 1560 1561
1514 1516 1518 1520 1522 1524 1526 1528 1529 1531 1532 1533 1534 1535 1537 1539 1540 1541 1541 1542 1544 1545 1545 1546 1547 1548 1549 1550 1551 1551 1551 1552 1553 1554 1555 1555 1555 1556 1556 1558 1559 1559
1511 1512 1515 1517 1519 1521 1524 1525 1527 1528 1530 1531 1532 1533 1534 1536 1537 1538 1539 1540 1541 1542 1542 1544 1545 1546 1547 1548 1549 1550 1551 1551 1552 1553 1554 1555 1555 1556 1556 1557 1558 1558
1507 1509 1511 1514 1516 1519 1521 1523 1524 1525 1527 1528 1529 1531 1532 1533 1534 1536 1537 1538 1538 1539 1540 1542 1543 1544 1545 1546 1547 1548 1549 1550 1551 1552 1552 1553 1554 1555 1555 1555 1556 1557
1504 1506 1508 1511 1513 1516 1518 1520 1521 1522 1523 1525 1526 1528 1529 1530 1532 1533 1535 1535 1536 1537 1538 1540 1541 1542 1543 1545 1545 1546 1547 1548 1549 1550 1551 1551 1552 1552 1553 1554 1554 1555
1500 1503 1505 1508 1510 1513 1515 1516 1518 1519 1520 1521 1523 1525 1526 1527 1529 1530 1531 1532 1534 1535 1536 1537 1539 1540 1541 1542 1543 1544 1545 1546 1547 1548 1549 1549 1549 1550 1551 1552 1553 1553
1497 1500 1502 1505 1507 1509 1511 1512 1514 1516 1517 1518 1520 1522 1523 1525 1526 1527 1528 1530 1531 1533 1533 1534 1536 1537 1538 1540 1541 1542 1543 1544 1545 1546 1547 1547 1547 1548 1549 1550 1550 1551
1493 1496 1499 1502 1504 1506 1507 1509 1511 1512 1514 1516 1517 1519 1520 1521 1523 1524 1525 1527 1528 1529 1530 1531 1533 1534 1535 1537 1538 1539 1540 1541 1542 1543 1544 1545 1545 1546 1547 1547 1548 1549
1490 1492 1495 1498 1500 1502 1503 1505 1507 1509 1511 1513 1514 1516 1517 1518 1519 1520 1522 1523 1524 1525 1526 1528 1529 1531 1532 1533 1534 1536 1537 1537 1539 1540 1541 1542 1542 1543 1544 1545 1545 1546
1486 1489 1491 1494 1496 1497 1499 1501 1504 1506 1508 1510 1511 1512 1513 1514 1515 1516 1518 1519 1520 1521 1522 1523 1525 1527 1528 1530 1531 1532 1533 1534 1536 1537 1538 1539 1540 1541 1542 1543 1543 1544
1483 1485 1487 1489 1492 1493 1495 1498 1501 1503 1504 1506 1508 1509 1509 1510 1511 1512 1513 1514 1515 1516 1518 1519 1520 1522 1524 1525 1527 1529 1530 1531 1533 1534 1535 1536 1537 1539 1540 1541 1541 1542
1479 1481 1483 1485 1488 1490 1492 1495 1498 1500 1500 1502 1503 1505 1506 1507 1507 1508 1509 1510 1511 1512 1514 1515 1516 1517 1519 1521 1523 1525 1527 1528 1530 1531 1532 1534 1535 1536 1537 1538 1539 1539
1474 1477 1479 1481 1484 1486 1489 1492 1494 1496 1497 1498 1499 1501 1503 1503 1503 1505 1506 1507 1508 1509 1510 1511 1512 1513 1515 1517 1519 1521 1523 1525 1526 1528 1530 1531 1532 1533 1535 1536 1536 1537
1470 1473 1476 1479 1481 1483 1486 1488 1491 1493 1494 1495 1496 1498 1499 1500 1500 1502 1503 1503 1504 1505 1507 1508 1509 1510 1512 1514 1516 1518 1521 1523 1524 1525 1527 1528 1529 1531 1532 1533 1534 1535
1467 1470 1473 1476 1478 1480 1482 1485 1487 1490 1492 1493 1494 1495 1497 1498 1499 1500 1500 1501 1501 1502 1504 1505 1506 1508 1509 1511 1514 1517 1519 1520 1521 1522 1524 1525 1526 1527 1529 1530 1532 1533
1464 1467 1469 1472 1474 1476 1479 1481 1484 1487 1489 1490 1491 1492 1494 1496 1498 1498 1497 1498 1499 1500 1502 1503 1503 1506 1507 1509 1513 1516 1516 1516 1518 1519 1520 1522 1523 1524 1526 1527 1529 1530
1461 1463 1466 1468 1471 1473 1475 1478 1481 1483 1485 1488 1489 1490 1491 1493 1495 1495 1495 1495 1496 1498 1500 1500 1501 1503 1503 1504 1508 1512 1513 1513 1514 1516 1518 1519 1521 1522 1523 1525 1526 1527
1458 1460 1462 1465 1467 1470 1472 1475 1478 1480 1482 1484 1486 1488 1489 1490 1492 1493 1493 1493 1493 1494 1496 1497 1499 1500 1500 1502 1505 1508 1510 1511 1512 1514 1516 1517 1519 1520 1522 1523 1524 1524
1454 1456 1459 1462 1464 1467 1470 1472 1475 1477 1479 1481 1483 1485 1486 1487 1489 1491 1491 1492 1492 1492 1493 1494 1496 1498 1498 1501 1504 1506 1508 1509 1511 1513 1515 1516 1517 1518 1520 1521 1522 1522
1451 1453 1456 1459 1462 1464 1467 1469 1471 1473 1475 1478 1480 1482 1483 1484 1486 1488 1489 1489 1490 1491 1491 1492 1493 1495 1496 1498 1501 1503 1506 1507 1509 1512 1513 1514 1515 1516 1517 1519 1520 1521
1448 1451 1454 1457 1459 1462 1464 1466 1468 1470 1473 1475 1477 1479 1480 1481 1483 1485 1486 1487 1488 1489 1489 1490 1491 1492 1494 1496 1498 1500 1503 1505 1507 1509 1511 1512 1513 1514 1515 1517 1517 1518
1446 1449 1452 1454 1457 1459 1461 1463 1466 1468 1470 1472 1474 1476 1476 1477 1479 1481 1482 1484 1485 1486 1487 1488 1488 1490 1492 1494 1496 1498 1501 1502 1505 1507 1508 1509 1510 1510 1512 1513 1514 1515
1444 1447 1449 1452 1455 1457 1459 1461 1464 1466 1468 1470 1472 1474 1474 1474 1476 1477 1479 1481 1482 1483 1485 1485 1486 1487 1489 1490 1492 1495 1497 1499 1502 1504 1504 1505 1506 1507 1509 1510 1511 1512
1443 1445 1448 1450 1453 1455 1457 1460 1462 1464 1466 1468 1470 1472 1472 1472 1473 1475 1477 1478 1479 1480 1482 1482 1483 1484 1485 1486 1488 1491 1493 1495 1498 1500 1501 1502 1503 1505 1506 1507 1508 1509
1441 1443 1446 1448 1451 1453 1455 1457 1459 1462 1464 1466 1468 1470 1471 1471 1471 1473 1474 1475 1476 1478 1479 1480 1480 1482 1483 1484 1486 1488 1490 1492 1494 1496 1498 1500 1501 1502 1504 1504 1505 1506
1438 1441 1444 1446 1449 1451 1453 1455 1456 1459 1461 1462 1465 1468 1469 1469 1470 1471 1472 1472 1474 1475 1476 1477 1478 1480 1481 1483 1485 1487 1488 1490 1492 1494 1496 1498 1499 1500 1501 1501 1502 1503